Location: İstanbul
(41.0082°N, 28.9784°E)
Time: 20:44:14
(UTC+02:00)

Oscar 11 - Pass Details

Date: 24 October 2021
Orbit: 614 x 623 km, 97.6° (Epoch: 30 November)

Event Time Altitude Azimuth Distance (km) Brightness Sun altitude
Rises 06:01:13 0° 21° (NNE) 2,904 10.8 -16.6°
Reaches altitude 10° 06:03:34 10° 30° (NNE) 1,995 10.0 -16.1°
Maximum altitude 06:07:34 36° 97° (E) 986 8.8 -15.4°
Drops below altitude 10° 06:11:34 10° 165° (SSE) 1,985 9.9 -14.6°
Sets 06:13:53 0° 174° (S) 2,888 10.6 -14.2°
